Location: Potomac
(46.8816°N, 113.5795°W)
Time: 10:28:34
(UTC+00:00)

Gurwin Techsat 1B - Pass Details

Date: 08 July 2022
Orbit: 812 x 813 km, 98.8° (Epoch: 09 August)

Event Time Altitude Azimuth Distance (km) Brightness Sun altitude
Rises 11:04:36 0° 8° (N) 3,347 12.7 -6.7°
Reaches altitude 10° 11:07:04 10° 1° (N) 2,411 11.8 -6.4°
Maximum altitude 11:11:58 39° 294° (WNW) 1,199 9.4 -5.8°
Drops below altitude 10° 11:16:52 10° 227° (SW) 2,396 10.4 -5.1°
Enters shadow 11:17:51 - 223° (SW) 2,762 10.7 -5.0°
